Location: �terpigny
(49.8910°N, 2.9249°E)
Time: 23:06:23
(UTC+00:00)

DIWATA 2B (PO-101) - Pass Details

Date: 05 July 2022
Orbit: 583 x 599 km, 98.0° (Epoch: 07 August)

Event Time Altitude Azimuth Distance (km) Brightness Sun altitude
Exits shadow 02:13:06 15° 201° (SSW) 1,632 ? -10.9°
Maximum altitude 02:16:09 36° 263° (W) 959 ? -10.7°
Drops below altitude 10° 02:20:05 10° 330° (NNW) 1,950 ? -10.3°
Sets 02:22:24 0° 340° (NNW) 2,857 ? -10.1°
